| time (UTC) | temp C | wind direction | speed KPH | gust KPH | rain 1hr cm | rain 24hr cm | rain mn cm | humidity % | barometer mb |
| 20260506161540 | 16 | 203 | 9.7 | 16.1 | 0.20 | 0.23 | 0.23 | 1 | 1005.2 |
| 20260506160037 | 17 | 196 | 9.7 | 16.1 | 0.15 | 0.15 | 0.15 | 1 | 1005.4 |
| 20260506154531 | 17 | 161 | 9.7 | 20.9 | 0.10 | 0.10 | 0.10 | 1 | 1005.4 |
| 20260506153027 | 17 | 193 | 9.7 | 20.9 | 0.05 | 0.05 | 0.05 | 1 | 1005.4 |
| 20260506151522 | 17 | 184 | 8.0 | 16.1 | 0.00 | 0.00 | 0.00 | 1 | 1005.3 |
| 20260506150018 | 17 | 175 | 11.3 | 16.1 | 0.00 | 0.00 | 0.00 | 1 | 1005.5 |
| 20260506144522 | 17 | 204 | 11.3 | 24.1 | 0.00 | 0.00 | 0.00 | 7 | 1005.8 |
| 20260506143009 | 17 | 200 | 12.9 | 20.9 | 0.00 | 0.00 | 0.00 | 17 | 1005.8 |
| 20260506141516 | 17 | 200 | 12.9 | 27.4 | 0.00 | 0.00 | 0.00 | 29 | 1005.8 |
| 20260506140100 | 17 | 174 | 16.1 | 29.0 | 0.00 | 0.00 | 0.00 | 31 | 1005.7 |
| 20260506134555 | 17 | 200 | 11.3 | 22.5 | 0.00 | 0.00 | 0.00 | 26 | 1005.5 |
| 20260506133106 | 17 | 178 | 14.5 | 25.7 | 0.00 | 0.00 | 0.00 | 27 | 1005.3 |
| 20260506131553 | 17 | 173 | 11.3 | 27.4 | 0.00 | 0.00 | 0.00 | 24 | 1005.2 |
| 20260506130042 | 17 | 167 | 11.3 | 19.3 | 0.00 | 0.00 | 0.00 | 20 | 1005.5 |
| 20260506124538 | 17 | 173 | 12.9 | 20.9 | 0.00 | 0.00 | 0.00 | 21 | 1005.4 |
| 20260506123039 | 16 | 169 | 12.9 | 24.1 | 0.00 | 0.00 | 0.00 | 18 | 1005.9 |
| 20260506121534 | 16 | 178 | 9.7 | 25.7 | 0.00 | 0.00 | 0.00 | 17 | 1006.0 |
| 20260506120049 | 16 | 188 | 11.3 | 22.5 | 0.00 | 0.00 | 0.00 | 18 | 1006.2 |
| 20260506114525 | 16 | 173 | 12.9 | 24.1 | 0.00 | 0.00 | 0.00 | 19 | 1005.7 |
| 20260506113021 | 16 | 161 | 12.9 | 22.5 | 0.00 | 0.00 | 0.00 | 22 | 1005.6 |
| 20260506111516 | 16 | 192 | 14.5 | 27.4 | 0.00 | 0.00 | 0.00 | 26 | 1005.5 |
| 20260506110012 | 16 | 165 | 12.9 | 33.8 | 0.00 | 0.00 | 0.00 | 28 | 1005.6 |
| 20260506104509 | 16 | 185 | 12.9 | 25.7 | 0.00 | 0.00 | 0.00 | 32 | 1005.3 |
| 20260506103010 | 16 | 169 | 14.5 | 25.7 | 0.00 | 0.00 | 0.00 | 35 | 1005.4 |
| 20260506101559 | 16 | 147 | 11.3 | 19.3 | 0.00 | 0.00 | 0.00 | 38 | 1005.6 |
| 20260506094556 | 16 | 141 | 11.3 | 17.7 | 0.00 | 0.00 | 0.00 | 44 | 1005.2 |
| 20260506093046 | 16 | 144 | 9.7 | 27.4 | 0.00 | 0.00 | 0.00 | 46 | 1005.1 |
| 20260506091541 | 16 | 156 | 14.5 | 20.9 | 0.00 | 0.00 | 0.00 | 38 | 1005.1 |
| 20260506090038 | 13 | 190 | 6.4 | 12.9 | 0.00 | 0.00 | 0.00 | 1 | 1005.1 |
| 20260506084607 | 12 | 344 | 0.0 | 4.8 | 0.00 | 0.00 | 0.00 | 1 | 1005.5 |
| 20260506083028 | 12 | 344 | 1.6 | 3.2 | 0.00 | 0.00 | 0.00 | 1 | 1005.6 |
| 20260506081534 | 12 | 344 | 0.0 | 1.6 | 0.00 | 0.00 | 0.00 | 1 | 1005.7 |
| 20260506073010 | 13 | 344 | 0.0 | 3.2 | 0.00 | 0.00 | 0.00 | 1 | 1005.8 |
| 20260506071506 | 13 | 344 | 1.6 | 6.4 | 0.00 | 0.00 | 0.00 | 1 | 1006.1 |
| 20260506061554 | 15 | 344 | 0.0 | 3.2 | 0.00 | 0.00 | 0.00 | 20 | 1006.5 |
| 20260506044534 | 20 | 227 | 0.0 | 11.3 | 0.00 | 0.00 | 0.00 | 52 | 1006.5 |
| 20260506043023 | 21 | 204 | 3.2 | 11.3 | 0.00 | 0.00 | 0.00 | 50 | 1006.3 |
| 20260506041519 | 21 | 203 | 12.9 | 29.0 | 0.00 | 0.00 | 0.00 | 48 | 1006.0 |
| 20260506040017 | 21 | 214 | 16.1 | 25.7 | 0.00 | 0.00 | 0.00 | 47 | 1005.9 |
| 20260506034517 | 21 | 211 | 11.3 | 29.0 | 0.00 | 0.00 | 0.00 | 46 | 1005.7 |
| 20260506033015 | 22 | 224 | 16.1 | 25.7 | 0.00 | 0.00 | 0.00 | 45 | 1005.7 |
| 20260506031515 | 22 | 221 | 12.9 | 25.7 | 0.00 | 0.00 | 0.00 | 44 | 1005.6 |
| 20260506030015 | 22 | 184 | 12.9 | 24.1 | 0.00 | 0.00 | 0.00 | 42 | 1005.7 |
| 20260506024513 | 22 | 215 | 14.5 | 24.1 | 0.00 | 0.00 | 0.00 | 42 | 1005.6 |
| 20260506023016 | 22 | 197 | 9.7 | 24.1 | 0.00 | 0.00 | 0.00 | 42 | 1005.7 |
| 20260506021512 | 22 | 221 | 17.7 | 27.4 | 0.00 | 0.00 | 0.00 | 41 | 1005.7 |
| 20260506020011 | 23 | 198 | 16.1 | 29.0 | 0.00 | 0.00 | 0.00 | 41 | 1005.7 |
| 20260506014510 | 23 | 200 | 16.1 | 25.7 | 0.00 | 0.00 | 0.00 | 42 | 1005.6 |
| 20260506013013 | 23 | 225 | 16.1 | 25.7 | 0.00 | 0.00 | 0.00 | 42 | 1005.3 |
| 20260506011510 | 23 | 226 | 16.1 | 33.8 | 0.00 | 0.00 | 0.00 | 42 | 1005.3 |
| 20260506010013 | 22 | 221 | 16.1 | 32.2 | 0.00 | 0.00 | 0.00 | 44 | 1005.1 |
| 20260506004511 | 20 | 234 | 6.4 | 16.1 | 0.00 | 0.00 | 0.00 | 53 | 1005.1 |
| 20260506003008 | 18 | 164 | 3.2 | 9.7 | 0.00 | 0.00 | 0.00 | 58 | 1004.8 |
| 20260506001507 | 19 | 169 | 4.8 | 6.4 | 0.00 | 0.00 | 0.00 | 58 | 1004.6 |
| 20260506000006 | 20 | 174 | 1.6 | 4.8 | 0.00 | 0.00 | 0.00 | 58 | 1004.5 |
| 20260505234506 | 20 | 175 | 4.8 | 9.7 | 0.00 | 0.00 | 0.00 | 57 | 1004.4 |
| 20260505233005 | 21 | 323 | 3.2 | 19.3 | 0.00 | 0.00 | 0.00 | 54 | 1004.4 |
| 20260505231503 | 22 | 351 | 4.8 | 14.5 | 0.00 | 0.00 | 0.00 | 49 | 1004.2 |
| 20260505230001 | 24 | 321 | 4.8 | 17.7 | 0.00 | 0.00 | 0.00 | 40 | 1004.2 |
| 20260505224501 | 24 | 242 | 14.5 | 30.6 | 0.00 | 0.00 | 0.00 | 37 | 1003.9 |
| 20260505223002 | 25 | 220 | 12.9 | 30.6 | 0.00 | 0.00 | 0.00 | 36 | 1003.6 |
| 20260505221604 | 25 | 218 | 16.1 | 35.4 | 0.00 | 0.00 | 0.00 | 36 | 1003.5 |
| 20260505214600 | 25 | 225 | 20.9 | 35.4 | 0.00 | 0.00 | 0.00 | 34 | 1003.0 |
| 20260505213058 | 25 | 223 | 20.9 | 41.8 | 0.00 | 0.00 | 0.00 | 33 | 1002.7 |
| 20260505211557 | 26 | 221 | 25.7 | 48.3 | 0.00 | 0.00 | 0.00 | 34 | 1002.7 |
| 20260505210056 | 26 | 222 | 30.6 | 48.3 | 0.00 | 0.00 | 0.00 | 33 | 1002.4 |
| 20260505204555 | 26 | 238 | 27.4 | 41.8 | 0.00 | 0.00 | 0.00 | 34 | 1002.6 |
| 20260505203112 | 26 | 226 | 32.2 | 38.6 | 0.00 | 0.00 | 0.00 | 35 | 1002.7 |
| 20260505201600 | 26 | 214 | 24.1 | 43.5 | 0.00 | 0.00 | 0.00 | 37 | 1002.9 |
| 20260505200054 | 26 | 214 | 25.7 | 51.5 | 0.00 | 0.00 | 0.00 | 37 | 1002.7 |
| 20260505194548 | 26 | 226 | 27.4 | 46.7 | 0.00 | 0.00 | 0.00 | 39 | 1002.9 |
| 20260505193046 | 26 | 192 | 29.0 | 41.8 | 0.00 | 0.00 | 0.00 | 39 | 1003.0 |
| 20260505191552 | 26 | 238 | 30.6 | 45.1 | 0.00 | 0.00 | 0.00 | 39 | 1003.2 |
| 20260505190042 | 26 | 214 | 25.7 | 51.5 | 0.00 | 0.00 | 0.00 | 39 | 1003.4 |
| 20260505184541 | 25 | 205 | 32.2 | 45.1 | 0.00 | 0.00 | 0.00 | 39 | 1003.4 |
| 20260505183039 | 25 | 222 | 25.7 | 51.5 | 0.00 | 0.00 | 0.00 | 39 | 1003.7 |
| 20260505181543 | 25 | 189 | 24.1 | 45.1 | 0.00 | 0.00 | 0.00 | 39 | 1003.8 |
| 20260505180038 | 25 | 215 | 25.7 | 51.5 | 0.00 | 0.00 | 0.00 | 39 | 1003.7 |
| 20260505174541 | 25 | 188 | 29.0 | 40.2 | 0.00 | 0.00 | 0.00 | 41 | 1004.0 |
| 20260505173033 | 25 | 187 | 24.1 | 40.2 | 0.00 | 0.00 | 0.00 | 41 | 1004.1 |
| 20260505171529 | 25 | 209 | 22.5 | 37.0 | 0.00 | 0.00 | 0.00 | 46 | 1004.3 |
| 20260505170026 | 24 | 170 | 22.5 | 38.6 | 0.00 | 0.00 | 0.00 | 45 | 1004.5 |
| 20260505164524 | 24 | 211 | 20.9 | 35.4 | 0.00 | 0.00 | 0.00 | 46 | 1004.6 |
| 20260505163026 | 23 | 179 | 25.7 | 38.6 | 0.00 | 0.00 | 0.00 | 46 | 1005.0 |